Weather History for Texarkana, AR

Change the Weather History Date:

Tuesday, April 23, 2013

  Actual Average Record
Temperature  
Mean Temperature 64 °F 66 °F  
Max Temperature 79 °F 77 °F 90 °F (1926)
Min Temperature 49 °F 55 °F 39 °F (1931)
Degree Days  
Heating Degree Days 1 2  
Month to date heating degree days 134 97  
Since 1 July heating degree days 2470 2591  
Cooling Degree Days 0 3  
Month to date cooling degree days 57 50  
Year to date cooling degree days 72 73  
Growing Degree Days 14 (Base 50)    
Moisture  
Dew Point 54 °F    
Average Humidity 70    
Maximum Humidity 89    
Minimum Humidity 50    
Precipitation  
Precipitation 0.00 in 0.14 in 2.90 in (1941)
Month to date precipitation 2.45 2.90  
Year to date precipitation 10.50 14.49  
Snow  
Snow 0.00 in - - ()
Month to date snowfall 0.0  
Since 1 July snowfall 2.1  
Snow Depth 0.00 in    
Sea Level Pressure  
Sea Level Pressure 29.96 in    
Wind  
Wind Speed 11 mph (SSW)    
Max Wind Speed 20 mph    
Max Gust Speed 29 mph    
Visibility 10 miles    
Events      
T = Trace of Precipitation, MM = Missing Value Source: NWS Daily Summary

Daily Weather History Graph

Daily Weather History Graph

Search for Another Location

Airport:

Trip Planner

Search our weather history database for the weather conditions in past years. The results will help you decide how hot, cold, wet, or windy it might be!

Date:

Astronomy

Apr. 23, 2013 Rise Set
Actual Time 6:35 AM CDT 7:52 PM CDT
Civil Twilight 6:09 AM CDT 8:19 PM CDT
Nautical Twilight 5:38 AM CDT 8:50 PM CDT
Astronomical Twilight 5:06 AM CDT 9:22 PM CDT
Moon 5:53 PM CDT 4:57 AM CDT
Length of Visible Light 14h 09m
Length of Day
13h 17m
Waxing Gibbous, 94% of the Moon is Illuminated
Apr 23
Waxing Gibbous
Apr 25
Full
May 2
Last Quarter
May 9
New
May 17
First Quarter

Hourly Weather History & Observations

Time (CDT) Temp. Dew Point Humidity Pressure Visibility Wind Dir Wind Speed Gust Speed Precip Events Conditions
12:53 AM 61.0 °F 48.9 °F 64% 29.95 in 10.0 mi SE 6.9 mph - N/A   Clear
1:53 AM 59.0 °F 48.9 °F 69% 29.95 in 10.0 mi SE 5.8 mph - N/A   Clear
2:53 AM 61.0 °F 50.0 °F 67% 29.92 in 10.0 mi South 9.2 mph - N/A   Clear
3:53 AM 59.0 °F 51.1 °F 75% 29.91 in 10.0 mi South 4.6 mph - N/A   Clear
4:53 AM 55.0 °F 51.1 °F 86% 29.93 in 10.0 mi ENE 4.6 mph - N/A   Mostly Cloudy
5:11 AM 53.6 °F 50.0 °F 88% 29.94 in 10.0 mi East 3.5 mph - N/A   Scattered Clouds
5:53 AM 53.1 °F 50.0 °F 89% 29.92 in 10.0 mi East 3.5 mph - N/A   Clear
6:53 AM 52.0 °F 48.9 °F 89% 29.96 in 8.0 mi Calm Calm - N/A   Clear
7:20 AM 55.4 °F 53.6 °F 94% 29.97 in 9.0 mi South 6.9 mph - N/A   Mostly Cloudy
7:53 AM 57.9 °F 54.0 °F 87% 29.99 in 9.0 mi South 9.2 mph - N/A   Mostly Cloudy
8:53 AM 61.0 °F 55.9 °F 83% 29.98 in 10.0 mi South 12.7 mph - N/A   Overcast
9:14 AM 62.6 °F 57.2 °F 82% 29.98 in 10.0 mi South 16.1 mph 25.3 mph N/A   Scattered Clouds
9:53 AM 64.9 °F 57.9 °F 78% 29.97 in 9.0 mi South 17.3 mph 24.2 mph N/A   Partly Cloudy
10:41 AM 66.2 °F 57.2 °F 73% 30.00 in 10.0 mi SW 18.4 mph 25.3 mph N/A   Mostly Cloudy
10:50 AM 68.0 °F 57.2 °F 68% 30.00 in 10.0 mi SSW 13.8 mph 24.2 mph N/A   Scattered Clouds
10:53 AM 69.1 °F 57.9 °F 68% 29.99 in 10.0 mi SW 16.1 mph 21.9 mph N/A   Scattered Clouds
11:00 AM 69.8 °F 57.2 °F 64% 30.00 in 10.0 mi SW 15.0 mph 24.2 mph N/A   Mostly Cloudy
11:28 AM 71.6 °F 57.2 °F 60% 30.00 in 10.0 mi SW 13.8 mph 23.0 mph N/A   Mostly Cloudy
11:53 AM 72.0 °F 57.9 °F 61% 29.99 in 10.0 mi SW 15.0 mph - N/A   Partly Cloudy
12:53 PM 75.0 °F 59.0 °F 57% 29.96 in 10.0 mi SSW 15.0 mph 25.3 mph N/A   Partly Cloudy
1:53 PM 77.0 °F 59.0 °F 54% 29.94 in 10.0 mi South 13.8 mph 24.2 mph N/A   Mostly Cloudy
2:53 PM 77.0 °F 57.9 °F 52% 29.91 in 10.0 mi SSW 18.4 mph 26.5 mph N/A   Scattered Clouds
3:53 PM 77.0 °F 57.9 °F 52% 29.90 in 10.0 mi SSW 11.5 mph - N/A   Overcast
4:53 PM 77.0 °F 60.1 °F 56% 29.88 in 10.0 mi SSW 11.5 mph - N/A   Mostly Cloudy
5:53 PM 77.0 °F 61.0 °F 58% 29.88 in 10.0 mi South 12.7 mph - N/A   Mostly Cloudy
6:53 PM 71.1 °F 61.0 °F 70% 29.90 in 10.0 mi NW 12.7 mph - N/A   Overcast
7:06 PM 68.0 °F 59.0 °F 73% 29.92 in 10.0 mi NW 16.1 mph - N/A   Overcast
7:53 PM 60.1 °F 53.1 °F 78% 29.94 in 10.0 mi NW 11.5 mph - N/A   Overcast
8:53 PM 55.9 °F 50.0 °F 80% 29.97 in 10.0 mi NW 13.8 mph - N/A   Overcast
9:53 PM 54.0 °F 48.0 °F 80% 30.00 in 10.0 mi WNW 15.0 mph 20.7 mph N/A   Overcast
10:53 PM 52.0 °F 46.0 °F 80% 30.01 in 10.0 mi WNW 11.5 mph - N/A   Overcast
11:53 PM 50.0 °F 44.1 °F 80% 30.03 in 10.0 mi NW 13.8 mph 20.7 mph N/A   Overcast